Overview Statistics Trail Chart Weather Telemetry Raw packets
 

This is the latest recevied weather packets stored in our database for station/object N7IGG. If no packets are shown the sender has not sent any weather packets the latest 10 day(s).

<< 35 36 37 38 39 40 41 >>
Time Temp. Humidity Pressure Rain* Wind** Luminosity Snow
1777937932 23.89° C 54% 1009.5 hPa 0 mm - 465 W/m² -
1777937628 25° C 52% 1009.4 hPa 0 mm - 458 W/m² -
1777937324 22.78° C 59% 1009.4 hPa 0 mm - 358 W/m² -
1777937022 23.89° C 54% 1009.5 hPa 0 mm - 508 W/m² -
1777936718 23.33° C 56% 1009.4 hPa 0 mm - 476 W/m² -
1777936415 21.11° C 62% 1009.4 hPa 0 mm - 477 W/m² -
1777936111 20° C 67% 1009.6 hPa 0 mm - 525 W/m² -
1777935809 20.56° C 64% 1009.7 hPa 0 mm - 527 W/m² -
1777935508 19.44° C 68% 1009.5 hPa 0 mm - 528 W/m² -
1777935203 21.11° C 63% 1009.7 hPa 0 mm - 542 W/m² -
1777934901 23.33° C 53% 1009.9 hPa 0 mm - 520 W/m² -
1777934598 24.44° C 51% 1009.9 hPa 0 mm - 558 W/m² -
1777934295 25.56° C 49% 1010 hPa 0 mm - 482 W/m² -
1777933990 24.44° C 54% 1010.2 hPa 0 mm - 284 W/m² -
1777933687 23.33° C 55% 1010.2 hPa 0 mm - 262 W/m² -
1777933384 22.78° C 56% 1010.2 hPa 0 mm - 404 W/m² -
1777933082 22.78° C 60% 1010.2 hPa 0 mm - 591 W/m² -
1777932779 22.78° C 58% 1010.2 hPa 0 mm - 603 W/m² -
1777932475 22.78° C 59% 1010.2 hPa 0 mm - 601 W/m² -
1777932172 22.22° C 61% 1010.2 hPa 0 mm - 663 W/m² -
1777931870 22.22° C 61% 1010.3 hPa 0 mm - 606 W/m² -
1777931566 21.67° C 62% 1010.4 hPa 0 mm - 676 W/m² -
1777931262 21.67° C 63% 1010.5 hPa 0 mm - 606 W/m² -
1777930964 21.11° C 64% 1010.5 hPa 0 mm - 685 W/m² -
1777930655 20.56° C 66% 1010.5 hPa 0 mm - 641 W/m² -

* Rain latest hour (hover to see other rain measurements)
** Current wind speed in m/s (hover to see current wind gust speed)